Dewpoint
42 41 39 39 37 36 36 37 39 40 40 40 41 41 41 39 40 39 40 39 39 40
41 40 39 38 38 36 38 36 38 39 37 40 38 40 39 39 39 39 39 39 39 37
39 39 37 37 37 37 37 37 37 38 38 38 39 38 38 38 37 37 37 35 34 32
38 37 36 35 36 37 39 37 37 38 38 38 37 39 39 37 36 36 36 34 31 29
34 34 34 35 36 38 36 38 37 37 37 37 37 37 36 36 34 30 29 29 29 28
32 33 34 34 34 34 33 32 32 31 31 28 28 26 25 24 25 26 26 26 25 24
33 32 32 32 31 29 27 25 23 23 22 23 21 21 21 22 24 23 21 23 24 23
31 31 30 29 27 26 25 22 21 22 22 23 21 19 25 24 23 23 23 25 21 24
30 31 30 27 25 22 22 21 22 22 22 23 17 27 25 24 22 20 20 20 21 21
30 31 27 24 19 19 21 23 22 22 21 22 23 24 24 25 22 21 21 21 21 20
30 29 25 22 19 20 21 22 21 22 23 23 21 28 25 24 22 22 21 21 21 22
29 28 24 20 20 21 21 22 21 22 24 24 24 27 25 23 23 22 21 20 21 22
25 26 23 21 21 22 21 20 23 25 25 26 25 27 23 24 24 24 23 23 21 24
28 25 22 21 21 20 21 25 29 31 28 26 26 25 23 23 24 24 25 23 24 26
Lifted_Index
5 5 6 7 8 8 7 7 6 6 6 6 6 6 6 5 5 5 5 5 5 6
5 6 7 7 8 8 7 7 6 6 6 6 6 6 6 5 5 5 5 5 4 4
6 6 7 7 8 8 7 7 6 6 6 5 5 5 5 5 4 4 4 4 3 3
7 7 7 7 7 7 7 7 6 5 5 5 4 4 4 3 3 3 3 3 3 3
7 7 7 7 7 7 7 6 6 5 5 4 4 4 4 4 4 4 4 4 4 4
7 7 7 7 7 7 6 6 6 5 5 4 4 4 5 5 5 5 5 5 5 5
7 7 7 7 7 7 7 6 6 6 6 5 6 6 6 6 6 6 6 6 6 6
6 6 6 6 6 6 6 6 6 6 6 6 6 7 7 7 7 8 7 7 7 7
5 5 5 6 6 6 6 6 6 6 6 7 7 7 7 7 8 8 8 7 7 7
4 4 5 5 6 6 6 6 6 6 7 7 7 7 7 7 7 8 7 7 7 7
4 4 5 5 6 6 6 6 6 6 7 7 7 7 7 7 8 8 7 7 7 6
3 4 4 5 5 6 6 6 6 6 7 7 7 7 8 8 9 8 8 7 7 7
3 3 4 4 5 5 6 6 6 6 7 7 7 7 8 9 9 9 8 8 7 7
3 3 3 4 5 5 6 6 6 6 7 7 7 8 8 9 9 9 8 8 7 7